This is the latest recevied weather packets stored in our database for station/object AA4XD. If no packets are shown the sender has not sent any weather packets the latest 10 day(s).
| Time | Temp. | Humidity | Pressure | Rain* | Wind** | Luminosity | Snow |
|---|---|---|---|---|---|---|---|
| 1777849574 | 24.44° C | 37% | 1015.2 hPa | 0 mm | - | 44 W/m² | - |
| 1777849271 | 24.44° C | 36% | 1015.4 hPa | 0 mm | - | 48 W/m² | - |
| 1777848968 | 24.44° C | 36% | 1015 hPa | 0 mm | - | 62 W/m² | - |
| 1777848668 | 25° C | 37% | 1014.9 hPa | 0 mm | - | 50 W/m² | - |
| 1777848366 | 25° C | 33% | 1014.8 hPa | 0 mm | - | 51 W/m² | - |
| 1777848063 | 25° C | 35% | 1014.8 hPa | 0 mm | - | 51 W/m² | - |
| 1777847761 | 25° C | 34% | 1015 hPa | 0 mm | - | 53 W/m² | - |
| 1777847456 | 25.56° C | 33% | 1014.8 hPa | 0 mm | - | 66 W/m² | - |
| 1777847154 | 25.56° C | 33% | 1014.9 hPa | 0 mm | - | 81 W/m² | - |
| 1777846852 | 25.56° C | 34% | 1014.9 hPa | 0 mm | - | 96 W/m² | - |
| 1777846550 | 26.11° C | 32% | 1015.1 hPa | 0 mm | - | 71 W/m² | - |
| 1777846247 | 26.67° C | 32% | 1015.1 hPa | 0 mm | - | 127 W/m² | - |
| 1777845943 | 26.67° C | 31% | 1015.2 hPa | 0 mm | - | 288 W/m² | - |
| 1777845640 | 26.11° C | 34% | 1014.9 hPa | 0 mm | - | 261 W/m² | - |
| 1777845337 | 26.11° C | 34% | 1015.2 hPa | 0 mm | - | 211 W/m² | - |
| 1777845035 | 26.67° C | 33% | 1015.3 hPa | 0 mm | - | 150 W/m² | - |
| 1777844733 | 27.22° C | 32% | 1015.1 hPa | 0 mm | - | 110 W/m² | - |
| 1777844429 | 27.78° C | 31% | 1015.2 hPa | 0 mm | - | 146 W/m² | - |
| 1777844127 | 28.33° C | 31% | 1015.2 hPa | 0 mm | - | 419 W/m² | - |
| 1777843824 | 27.78° C | 32% | 1014.9 hPa | 0 mm | - | 442 W/m² | - |
| 1777843521 | 27.78° C | 31% | 1014.8 hPa | 0 mm | - | 463 W/m² | - |
| 1777843219 | 27.78° C | 31% | 1015.3 hPa | 0 mm | - | 485 W/m² | - |
| 1777842915 | 28.33° C | 30% | 1015.1 hPa | 0 mm | - | 503 W/m² | - |
| 1777842611 | 28.33° C | 31% | 1015.1 hPa | 0 mm | - | 528 W/m² | - |
| 1777842308 | 27.78° C | 32% | 1015.1 hPa | 0 mm | - | 549 W/m² | - |
* Rain latest hour (hover to see other rain measurements)
** Current wind speed in m/s (hover to see current wind gust speed)